FENGYUN 1C DEB

Satellite information

Favourite Embed

Satellite Type and Status

DEBRISIN ORBIT

Key statistics

Satellite FENGYUN 1C DEB at a glance.

Uptime

9610

Days in orbit

Revolutions

≈ 14.1

Per day

Orbit

SSO

Sun Synchronous Orbit

Inclination

99.0

Latest

Satellite identification and parameters

Extended collection of information and parameters for FENGYUN 1C DEB.

Object identification

Identified? True

Debris? True

Object name: FENGYUN 1C DEB

International designator: 1999-025EHE

Object number (NORAD): 37436

Object ID (CCSDS): 37436

Country: PEOPLES REPUBLIC OF CHINA (PRC)

Current information (Y/N): Y

RCS size: SMALL

Orbital parameters

Period: 102.414 minutes

Inclination: 98.9548 deg

SMA: 7251.019 km

Apoapsis: 916.809 km

Periapsis: 828.958 km

RAAN: 282.331 deg

Eccentricy: 0.0060578

Argument of periapsis: 124.689 deg

Mean anomaly: 236.0006 deg

Mean motion: 14.06061219 rev/day

Mean motion (dot): 0.00000568 rev/day2

B* drag term: 0.00036637 1/REarth

Two-line elements (TLE)

Creation date: Aug. 14, 2025, 8:24 p.m.

Reference frame: TEME

Reference center: EARTH

Epoch: Aug. 14, 2025, 9:25 a.m. UTC

TLE line 0: 0 FENGYUN 1C DEB

TLE line 1: 1 37436U 99025EHE 25226.39245209 .00000568 00000-0 36637-3 0 9996

TLE line 2: 2 37436 98.9548 282.3310 0060578 124.6890 236.0006 14.06061219623078

Live tracking on map

Real-time ground track for satellite FENGYUN 1C DEB.

In-orbit conjunctions

A list of the most updated potential collisions computed for object FENGYUN 1C DEB.

Target Orbit TCA Probability of collision Miss distance Type
FENGYUN 1C DEB SSO 2025-07-07 20:57:27 0.0001687402 269.0 (m) DEBRIS
CZ-6A DEB LEO 2025-01-28 10:53:01 0.0001335291 824.0 (m) DEBRIS
COSMOS 1833 LEO 2025-01-10 02:12:10 0.0001135088 976.0 (m) PAYLOAD
METEOR 2-8 DEB LEO 2024-11-13 08:13:58 0.0007012494 71.0 (m) DEBRIS
SL-16 R/B LEO 2024-10-13 12:12:34 0.0001431206 550.0 (m) ROCKET BODY

Associated space launch

Chinese polar orbiting meteorological satellite

FENGYUN 1C DEB was lifted into orbit during the mission ‘Long March 4B | Feng Yun 1C’, on board a Long March 4B space rocket.

The launch took place on May 10, 1999, 1:33 a.m. from Launch Complex 7.

For more information about the launch, click the button.

Launch to space Long March 4B | Feng Yun 1C
Long March 4B | Feng Yun 1C

Agency: N/A

Status: Launch Successful

Launch date: May 10, 1999, 1:33 a.m. UTC

Rocket: Long March 4B

Launch pad: Launch Complex 7

Location: Taiyuan Satellite Launch Center, People's Republic of China

...

Latest news about this satellite

There are no fresh news available about this satellite. Check back as we update our databases every day.


Newsletter sign-up

Weekly statistics, charts and insights to help you stay on top of the space industry.